[[{"header":{"parameterUnit":"m.s-1","parameterCategory":2,"la1":30.2991,"la2":30.254,"lo1":-89.0895,"lo2":-89.0444,"dy":0.0017,"dx":0.0017,"nx":28,"ny":28,"refTime":"2023-10-18T09:00:00:Z","depth":"0","parameterNumber":2,"parameterNumberName":"U-component_of_CURRENTS"},"data":[0,0,0,0,0,0,0,0,0,0,0,0,0,0,0,0,0,0,0,0,0,0,0,0,0,0,0,0,0,0,0,0,0,0,0,0,0,0,0,0,0,0,0,0,0,0,0,0,0,0,0,0,0,0,0,0,0,0,0.2863,0.2864,0,0.2909,0.2909,0.2909,0.2917,0.2917,0.2917,0.2917,0.2893,0.2893,0.2892,0,0,0,0,0,0,0,0,0,0,0,0,0,0.2778,0.2779,0.2863,0.2864,0.2865,0.2909,0.2909,0.2909,0.2917,0.2917,0.2917,0.2917,0.2893,0.2893,0.2892,0,0,0,0,0,0,0,0,0,0,0,0,0,0.2815,0.2779,0.2863,0.2877,0.2879,0.2908,0.2909,0.2909,0.2917,0.2917,0.2917,0.2917,0.2894,0.2893,0.2892,0.2887,0,0,0.2889,0.2889,0,0,0,0,0,0,0,0,0.2812,0.2817,0.2874,0.2876,0.2878,0.291,0.2871,0.29,0.2917,0.2898,0.2917,0.2917,0.2895,0.2894,0.2898,0.2886,0.2885,0.2889,0.2888,0.2888,0.2888,0,0,0,0,0,0,0,0.281,0.2815,0.2877,0.2875,0.2878,0.288,0.2884,0.2876,0.2892,0.29,0.2901,0.2913,0.2895,0.2899,0.2898,0.2885,0.2889,0.2888,0.2888,0.2887,0.291,0.2911,0,0,0,0,0,0,0.2813,0.2813,0.2876,0.2879,0.2849,0.2881,0.2887,0.2897,0.2894,0.2895,0.2913,0.2913,0.2901,0.2899,0.2897,0.295,0.2888,0.2887,0.2887,0.2909,0.291,0.2911,0,0,0,0,0,0,0.2811,0.2818,0.2874,0.285,0.2858,0.2883,0.2895,0.2898,0.291,0.2905,0.2904,0.2923,0.2901,0.2898,0.2901,0.2947,0.2887,0.2886,0.2907,0.2909,0.2911,0.3019,0,0,0,0,0,0,0.2808,0.2817,0.2819,0.285,0.2859,0.2893,0.2895,0.2899,0.2919,0.2919,0.2913,0.2911,0.29,0.2902,0.29,0.2945,0.2885,0.2906,0.2908,0.291,0.3014,0.3024,0.3033,0,0,0,0,0,0.2805,0.2806,0.2819,0.2826,0.2864,0.2894,0.2898,0.2913,0.2919,0.2924,0.2926,0.2911,0.2915,0.2902,0.2899,0.2945,0.2905,0.2907,0.291,0.301,0.3022,0.3032,0,0,0,0,0,0,0.2759,0.2809,0.2823,0.2836,0.2866,0.2896,0.2899,0.2919,0.2926,0.2923,0.2919,0.2917,0.2948,0.2918,0.2905,0.2955,0.291,0.2912,0.2987,0.2998,0.3007,0.3096,0.2885,0,0,0,0,0,0.2755,0.2775,0.2819,0.2828,0.2842,0.2874,0.2887,0.2904,0.2919,0.2923,0.2922,0.2925,0.2955,0.2952,0.2958,0.2971,0.3044,0.2998,0.3007,0.3016,0.3084,0.3243,0.3276,0.292,0.292,0.2919,0,0,0.2741,0.2769,0.2781,0.2821,0.284,0.2887,0.288,0.2902,0.2954,0.2917,0.2959,0.2958,0.2967,0.3,0.301,0.298,0.3146,0.3019,0.3027,0.3092,0.3249,0.3285,0.3317,0.2921,0.2921,0.2921,0,0,0.2756,0.2747,0.2793,0.2818,0.2861,0.288,0.2893,0.2928,0.295,0.2983,0.2997,0.3038,0.3024,0.3079,0.31,0.3162,0.32,0.3133,0.3247,0.3398,0.3431,0.3461,0.3572,0.3612,0.3127,0.3127,0.3128,0,0.2745,0.283,0.2805,0.286,0.291,0.2887,0.297,0.2973,0.3007,0.3063,0.3002,0.311,0.3089,0.3227,0.3241,0.3195,0.3271,0.3204,0.3419,0.345,0.3479,0.3586,0.3629,0.3133,0.3132,0.3132,0.3131,0,0.2842,0.289,0.2909,0.2988,0.3004,0.3066,0.3082,0.3103,0.3112,0.3151,0.3261,0.3252,0.3336,0.3317,0.3295,0.3489,0.3473,0.3425,0.3406,0.3523,0.3625,0.3668,0.3141,0.3139,0.3137,0.3136,0,0,0.2927,0.2981,0.2995,0.3072,0.3103,0.3145,0.3191,0.3294,0.3385,0.3376,0.3533,0.3562,0.357,0.3599,0.3583,0.3693,0.3921,0.3646,0.3652,0.3786,0.4254,0.4183,0.4221,0.3918,0.3926,0.3933,0.4235,0,0.3057,0.3185,0.3178,0.3313,0.3406,0.3384,0.3449,0.35,0.3527,0.3633,0.3666,0.377,0.367,0.3725,0.3826,0.3898,0.4042,0.3844,0.4098,0.4106,0.4054,0.4272,0.4161,0.4418,0.4276,0.4283,0.4288,0,0.3235,0.3301,0.3447,0.3554,0.3591,0.364,0.3774,0.3826,0.3913,0.3941,0.403,0.4031,0.4182,0.4071,0.4317,0.4194,0.4269,0.4312,0.4323,0.4269,0.4117,0.4281,0.45,0.4367,0.4353,0.4348,0.4343,0,0.3401,0.3522,0.3652,0.3687,0.3765,0.3835,0.3877,0.3945,0.3996,0.4148,0.42,0.4356,0.4428,0.4564,0.4581,0.4493,0.4851,0.473,0.476,0.4752,0.4721,0.4697,0.4879,0.5001,0.5001,0.5,0.4999,0,0.3605,0.3708,0.3741,0.3814,0.3958,0.3982,0.4113,0.4165,0.4252,0.4324,0.4373,0.4459,0.4562,0.4701,0.4737,0.4881,0.4985,0.488,0.4873,0.4743,0.4719,0.4644,0.4526,0.5011,0.5008,0.5006,0.5004,0,0.3751,0.3782,0.3918,0.4009,0.4029,0.4122,0.4157,0.4239,0.4335,0.4432,0.4482,0.4601,0.4775,0.4869,0.5096,0.5072,0.5094,0.5252,0.5066,0.5033,0.4869,0.4758,0.4827,0.467,0.5362,0.5362,0.5363,0,0.3843,0.3932,0.4001,0.4027,0.4055,0.4149,0.4181,0.4259,0.4307,0.4479,0.4532,0.4742,0.4809,0.511,0.5184,0.5338,0.5154,0.5325,0.5144,0.4944,0.4817,0.4592,0.4435,0.5138,0.5137,0.5136,0.5135,0,0.3989,0.3984,0.4037,0.4077,0.4113,0.4143,0.42,0.4232,0.4328,0.442,0.4531,0.4619,0.4883,0.4978,0.52,0.526,0.5065,0.5305,0.5193,0.478,0.4464,0.4276,0.4811,0.5126,0.5126,0.5127,0.5128,0.5128,0.403,0.4055,0.4072,0.4097,0.4121,0.4109,0.4093,0.4143,0.4196,0.4274,0.4445,0.4542,0.4797,0.5057,0.5088,0.5089,0.4978,0.5003,0.4928,0.4751,0.4479,0.4972,0.5191,0.5193,0.5194,0.5195,0.5195,0,0.4048,0.4041,0.4078,0.406,0.4042,0.4067,0.4068,0.4019,0.4012,0.4148,0.4231,0.4448,0.4609,0.4767,0.4898,0.4773,0.4538,0.4656,0.4342,0.4232,0.4812,0.4677,0.4678,0.4678,0.4678,0.4678,0.4678,0.4678,0.4044,0.4035,0.4025,0.3966,0.3949,0.386,0.3826,0.3772,0.3812,0.3828,0.3902,0.4034,0.4305,0.4625,0.4609,0.4508,0.4131,0.4003,0.3895,0.4324,0.4349,0.4373,0.4223,0.4129,0.4128,0.3205,0.3198,0.3192]},{"header":{"parameterUnit":"m.s-1","parameterCategory":2,"la1":30.2991,"la2":30.254,"lo1":-89.0895,"lo2":-89.0444,"dy":0.0017,"dx":0.0017,"nx":28,"ny":28,"refTime":"2023-10-18T09:00:00:Z","depth":"0","parameterNumber":3,"parameterNumberName":"V-component_of_CURRENTS"},"data":[0,0,0,0,0,0,0,0,0,0,0,0,0,0,0,0,0,0,0,0,0,0,0,0,0,0,0,0,0,0,0,0,0,0,0,0,0,0,0,0,0,0,0,0,0,0,0,0,0,0,0,0,0,0,0,0,0,0,-0.009,-0.009,0,-0.0137,-0.0138,-0.0139,-0.0186,-0.0186,-0.0187,-0.0187,-0.0293,-0.0295,-0.0298,0,0,0,0,0,0,0,0,0,0,0,0,0,-0.0092,-0.0091,-0.009,-0.009,-0.0091,-0.0137,-0.0138,-0.0139,-0.0186,-0.0186,-0.0187,-0.0187,-0.0292,-0.0295,-0.0298,0,0,0,0,0,0,0,0,0,0,0,0,0,-0.0112,-0.0091,-0.009,-0.0118,-0.0121,-0.0137,-0.0138,-0.0139,-0.0186,-0.0186,-0.0187,-0.0187,-0.0291,-0.0295,-0.0298,-0.0309,0,0,-0.031,-0.0311,0,0,0,0,0,0,0,0,-0.0111,-0.0112,-0.0113,-0.0116,-0.0119,-0.0154,-0.0177,-0.0198,-0.0185,-0.0163,-0.0187,-0.0188,-0.025,-0.0257,-0.0267,-0.0314,-0.0319,-0.031,-0.0312,-0.0314,-0.0315,0,0,0,0,0,0,0,-0.0109,-0.0111,-0.0111,-0.0114,-0.0117,-0.0146,-0.0149,-0.0182,-0.0206,-0.0165,-0.0168,-0.017,-0.0252,-0.0263,-0.027,-0.032,-0.031,-0.0313,-0.0315,-0.0317,-0.0361,-0.036,0,0,0,0,0,0,-0.0095,-0.0109,-0.011,-0.0112,-0.0114,-0.0145,-0.0149,-0.0144,-0.0204,-0.0213,-0.0169,-0.0172,-0.0257,-0.0266,-0.0274,-0.0239,-0.0314,-0.0317,-0.0319,-0.0362,-0.036,-0.0359,0,0,0,0,0,0,-0.0095,-0.0094,-0.0108,-0.0111,-0.0114,-0.0143,-0.0139,-0.0145,-0.0153,-0.0206,-0.0216,-0.017,-0.0258,-0.0269,-0.0288,-0.0246,-0.0319,-0.0322,-0.0363,-0.0361,-0.036,-0.0203,0,0,0,0,0,0,-0.0095,-0.0094,-0.0088,-0.0109,-0.0113,-0.0101,-0.0138,-0.0145,-0.0152,-0.0156,-0.021,-0.0221,-0.0259,-0.0282,-0.0291,-0.0252,-0.0325,-0.0364,-0.0362,-0.036,-0.0209,-0.0196,-0.0185,0,0,0,0,0,-0.0094,-0.007,-0.0087,-0.0087,-0.0102,-0.0099,-0.0103,-0.0129,-0.0151,-0.0142,-0.0179,-0.0219,-0.0276,-0.0283,-0.0295,-0.0256,-0.0365,-0.0363,-0.036,-0.0215,-0.0199,-0.0185,0,0,0,0,0,0,-0.006,-0.0073,-0.0092,-0.0072,-0.0081,-0.0106,-0.01,-0.0121,-0.0144,-0.0152,-0.0207,-0.0219,-0.0218,-0.0266,-0.0273,-0.0266,-0.0327,-0.0327,-0.0213,-0.0198,-0.0186,-0.0107,-0.0328,0,0,0,0,0,-0.0051,-0.0042,-0.0059,-0.0044,-0.0046,-0.0075,-0.0079,-0.0096,-0.0117,-0.0128,-0.0164,-0.0203,-0.0218,-0.0231,-0.0262,-0.0259,-0.0255,-0.0245,-0.0232,-0.0221,-0.0167,-0.0133,-0.011,-0.0352,-0.0352,-0.0352,0,0,-0.0034,-0.004,-0.0036,-0.0037,-0.005,-0.002,-0.0079,-0.0075,-0.0043,-0.0137,-0.0115,-0.0163,-0.021,-0.02,-0.0204,-0.0233,-0.0154,-0.0218,-0.0208,-0.0159,-0.0127,-0.0103,-0.0082,-0.035,-0.035,-0.0351,0,0,0.0032,-0.0,0.0043,0.0039,0.0032,0.0015,0.0022,0.0001,-0.0004,0.0002,-0.0046,-0.0055,-0.0106,-0.0104,-0.0116,-0.0055,-0.0091,-0.009,0.0042,0.0074,0.0096,0.0115,0.0151,0.0172,-0.0082,-0.0081,-0.0081,0,0.0059,0.012,0.0056,0.0101,0.0125,0.0042,0.0113,0.0089,0.0066,0.0097,0.0028,0.0025,-0.0041,0.003,0.0038,-0.0019,-0.0011,-0.0006,0.0097,0.0115,0.0133,0.0164,0.0186,-0.0073,-0.0074,-0.0075,-0.0076,0,0.0181,0.0215,0.0241,0.0273,0.0272,0.0318,0.0282,0.0286,0.0255,0.0248,0.029,0.0213,0.023,0.0186,0.0125,0.0219,0.0182,0.011,0.0073,0.0168,0.0193,0.0213,-0.0062,-0.0065,-0.0067,-0.0069,0,0,0.0326,0.0332,0.0347,0.0406,0.0382,0.0417,0.0442,0.0494,0.0561,0.05,0.0613,0.0546,0.0506,0.0493,0.0416,0.0424,0.0514,0.0324,0.0321,0.0386,0.0601,0.0533,0.0546,0.0457,0.0461,0.0464,0.0571,0,0.0474,0.0597,0.0551,0.0682,0.0763,0.0688,0.0738,0.0746,0.0725,0.079,0.0731,0.0775,0.0621,0.0638,0.0627,0.0549,0.0574,0.0494,0.0478,0.0479,0.0429,0.057,0.0519,0.0607,0.059,0.0593,0.0595,0,0.067,0.0725,0.0872,0.0943,0.0971,0.1021,0.1112,0.1139,0.1155,0.1143,0.1157,0.1086,0.1111,0.0943,0.0916,0.0871,0.077,0.0689,0.0689,0.0599,0.0449,0.0506,0.0642,0.0348,0.0625,0.0622,0.062,0,0.0893,0.0979,0.1114,0.1137,0.1175,0.1246,0.1269,0.128,0.1331,0.1384,0.1436,0.1414,0.1445,0.1321,0.1118,0.1035,0.1076,0.0936,0.0798,0.0791,0.0737,0.0718,0.0617,0.0951,0.0951,0.0951,0.095,0,0.1122,0.1237,0.1237,0.1322,0.1476,0.1451,0.1602,0.1603,0.1655,0.1748,0.165,0.1739,0.1539,0.1494,0.1269,0.1124,0.1204,0.0889,0.0839,0.0784,0.0769,0.0495,0.0331,0.0955,0.0954,0.0953,0.0952,0,0.1338,0.1352,0.1498,0.156,0.1587,0.1694,0.1757,0.1843,0.1896,0.2019,0.2052,0.2044,0.1997,0.1772,0.1606,0.1358,0.1025,0.1104,0.1053,0.0994,0.0543,0.039,0.0343,0.0182,0.0991,0.0991,0.099,0,0.1458,0.1558,0.1636,0.1683,0.1711,0.1837,0.1893,0.195,0.2024,0.2195,0.2272,0.2313,0.2329,0.2091,0.169,0.137,0.1065,0.107,0.0888,0.0577,0.037,0.0291,0.0151,0.0879,0.0878,0.0876,0.0875,0,0.1629,0.164,0.17,0.1797,0.1878,0.1976,0.208,0.2182,0.2269,0.2409,0.2586,0.2653,0.247,0.2154,0.172,0.1445,0.0841,0.1033,0.0739,0.033,0.0217,0.0016,0.074,0.0865,0.0866,0.0867,0.0867,0.0868,0.1678,0.1727,0.1766,0.1864,0.1955,0.2076,0.2174,0.2298,0.2471,0.2694,0.2785,0.2954,0.2528,0.1956,0.1534,0.0748,0.078,0.0452,0.0317,0.0285,0.006,0.0766,0.0794,0.0794,0.0795,0.0795,0.0796,0,0.1683,0.1723,0.1813,0.1916,0.2022,0.2073,0.2246,0.2355,0.2557,0.2836,0.3022,0.2986,0.2336,0.1706,0.0685,0.0117,-0.009,-0.0193,-0.0342,-0.044,0.022,0.0134,-0.0014,-0.0014,-0.0013,-0.0013,-0.0013,-0.0012,0.1668,0.172,0.1773,0.1928,0.2019,0.2168,0.2269,0.2453,0.2674,0.3015,0.3219,0.338,0.2951,0.1091,-0.0245,-0.056,-0.0962,-0.0998,-0.1201,-0.0818,-0.077,-0.0724,-0.0844,-0.1194,-0.1196,-0.1823,-0.183,-0.1835]}],[{"header":{"parameterUnit":"m.s-1","parameterCategory":2,"la1":30.2991,"la2":30.254,"lo1":-89.0895,"lo2":-89.0444,"dy":0.0017,"dx":0.0017,"nx":28,"ny":28,"refTime":"2023-10-18T09:00:00:Z","depth":"2","parameterNumber":2,"parameterNumberName":"U-component_of_CURRENTS"},"data":[0,0,0,0,0,0,0,0,0,0,0,0,0,0,0,0,0,0,0,0,0,0,0,0,0,0,0,0,0,0,0,0,0,0,0,0,0,0,0,0,0,0,0,0,0,0,0,0,0,0,0,0,0,0,0,0,0,0,0.224,0.2241,0,0.2265,0.2265,0.2265,0.2296,0.2297,0.2298,0.2299,0.2342,0.2342,0.2343,0,0,0,0,0,0,0,0,0,0,0,0,0,0.2193,0.2194,0.224,0.2241,0.2241,0.2265,0.2265,0.2265,0.2296,0.2297,0.2298,0.2299,0.2342,0.2342,0.2343,0,0,0,0,0,0,0,0,0,0,0,0,0,0.2212,0.2194,0.224,0.2262,0.2265,0.2265,0.2265,0.2265,0.2296,0.2297,0.2298,0.2299,0.2342,0.2342,0.2343,0.2321,0,0,0.2345,0.2345,0,0,0,0,0,0,0,0,0.2211,0.2213,0.2258,0.2261,0.2264,0.2282,0.2265,0.2286,0.2295,0.228,0.2299,0.23,0.2325,0.2327,0.2323,0.2323,0.2325,0.2345,0.2345,0.2345,0.2345,0,0,0,0,0,0,0,0.2209,0.2212,0.2246,0.2259,0.2262,0.2263,0.2267,0.2268,0.2293,0.2281,0.2285,0.2293,0.2326,0.2323,0.2325,0.2326,0.2345,0.2345,0.2345,0.2346,0.2403,0.2405,0,0,0,0,0,0,0.2214,0.2211,0.2245,0.2247,0.2244,0.2263,0.2267,0.2272,0.2292,0.2298,0.2292,0.2295,0.2321,0.2324,0.2327,0.2394,0.2345,0.2346,0.2346,0.2402,0.2404,0.2405,0,0,0,0,0,0,0.2213,0.2217,0.2244,0.2233,0.2237,0.2263,0.2268,0.2272,0.2289,0.2301,0.2306,0.2308,0.2322,0.2326,0.2348,0.2393,0.2346,0.2346,0.2401,0.2403,0.2404,0.247,0,0,0,0,0,0,0.2211,0.2216,0.2222,0.2233,0.2238,0.2263,0.2267,0.2272,0.2293,0.2297,0.2316,0.232,0.2324,0.2347,0.2348,0.2393,0.2347,0.2399,0.2402,0.2404,0.2467,0.2474,0.2481,0,0,0,0,0,0.2209,0.2211,0.2222,0.2227,0.2246,0.2265,0.2267,0.2287,0.2293,0.2305,0.2317,0.232,0.2363,0.2348,0.2349,0.2395,0.2398,0.2401,0.2404,0.2463,0.2473,0.248,0,0,0,0,0,0,0.2193,0.2215,0.2228,0.2237,0.226,0.2272,0.228,0.2293,0.231,0.2316,0.2324,0.2329,0.2372,0.2364,0.2347,0.2418,0.2386,0.2389,0.2431,0.244,0.2446,0.2477,0.2347,0,0,0,0,0,0.2192,0.22,0.2227,0.2235,0.2247,0.2265,0.2275,0.2294,0.2309,0.2318,0.2335,0.2353,0.2378,0.2393,0.2409,0.2434,0.2464,0.2467,0.2474,0.248,0.2506,0.2591,0.261,0.2414,0.2414,0.2414,0,0,0.2184,0.2201,0.2203,0.2232,0.2245,0.2275,0.2274,0.2297,0.2327,0.2319,0.2359,0.2376,0.239,0.2431,0.245,0.2434,0.2548,0.2484,0.2489,0.2512,0.2596,0.2616,0.2633,0.2416,0.2415,0.2415,0,0,0.2184,0.2191,0.2207,0.2225,0.2261,0.2282,0.2295,0.2324,0.2343,0.2374,0.2392,0.2436,0.2452,0.2492,0.2507,0.2557,0.2582,0.2562,0.2626,0.2708,0.2725,0.2741,0.2791,0.2811,0.2566,0.2566,0.2566,0,0.2171,0.2208,0.2215,0.2239,0.2269,0.2291,0.2331,0.2343,0.238,0.2414,0.2396,0.2483,0.2487,0.2573,0.2594,0.2578,0.262,0.2592,0.272,0.2736,0.2752,0.2799,0.2821,0.257,0.2569,0.2569,0.2569,0,0.2193,0.2225,0.2233,0.2281,0.231,0.2342,0.2377,0.2414,0.244,0.2466,0.2549,0.2564,0.263,0.2635,0.2627,0.2747,0.2739,0.272,0.2703,0.2776,0.282,0.2841,0.2575,0.2574,0.2572,0.2572,0,0,0.2163,0.2237,0.2245,0.228,0.2342,0.2364,0.2428,0.2502,0.2553,0.2589,0.2681,0.272,0.2751,0.2772,0.2787,0.285,0.2975,0.2838,0.2841,0.2897,0.3154,0.3036,0.3047,0.299,0.2995,0.2998,0.3137,0,0.2189,0.2269,0.2295,0.2361,0.2413,0.245,0.2512,0.2574,0.262,0.2703,0.2755,0.2833,0.2794,0.285,0.291,0.2975,0.3037,0.2939,0.3069,0.3072,0.2967,0.307,0.2851,0.2948,0.3158,0.3161,0.3164,0,0.2216,0.2277,0.2352,0.2444,0.2465,0.2502,0.2619,0.2667,0.278,0.2836,0.293,0.2958,0.3084,0.3027,0.3181,0.3128,0.3154,0.3179,0.3185,0.3073,0.2994,0.2912,0.2978,0.3199,0.3196,0.3193,0.3191,0,0.2215,0.2316,0.2382,0.2402,0.2496,0.2542,0.2618,0.2721,0.2761,0.2939,0.299,0.3137,0.3208,0.3297,0.3324,0.3283,0.3475,0.3418,0.3332,0.3323,0.3161,0.3129,0.3528,0.3528,0.3528,0.3528,0.3527,0,0.2208,0.2264,0.2388,0.2392,0.2477,0.2567,0.2618,0.2739,0.2875,0.2931,0.3055,0.3116,0.328,0.3367,0.3405,0.3441,0.3543,0.3379,0.337,0.3171,0.3141,0.337,0.3349,0.3533,0.3532,0.3531,0.353,0,0.2125,0.2222,0.227,0.2394,0.2448,0.249,0.2589,0.2632,0.2804,0.2897,0.2967,0.3144,0.3287,0.34,0.3561,0.351,0.3583,0.3557,0.3299,0.3255,0.3353,0.3334,0.3498,0.3496,0.3493,0.3492,0.349,0,0.207,0.2103,0.2212,0.2237,0.2271,0.235,0.2407,0.2593,0.2641,0.2863,0.2915,0.3105,0.3177,0.337,0.3426,0.3523,0.3562,0.3299,0.3163,0.3385,0.336,0.3345,0.333,0.2978,0.2972,0.2968,0.2964,0,0.1963,0.2001,0.2036,0.2102,0.2154,0.2184,0.2304,0.2326,0.2536,0.2634,0.2791,0.2886,0.3085,0.31,0.3229,0.3225,0.3277,0.3201,0.3564,0.2994,0.2899,0.2872,0.2874,0.2923,0.2927,0.293,0.2932,0.2934,0.1873,0.1868,0.1942,0.1966,0.2032,0.2071,0.207,0.2165,0.2251,0.2395,0.2563,0.2656,0.2796,0.2873,0.285,0.2861,0.3052,0.2919,0.2932,0.2951,0.2841,0.2744,0.2719,0.2721,0.2724,0.2726,0.2728,0,0.1765,0.1806,0.1829,0.1868,0.1867,0.1977,0.2041,0.1992,0.203,0.2184,0.2291,0.221,0.2287,0.2444,0.2413,0.2425,0.2388,0.2317,0.2269,0.2314,0.2353,0.2209,0.1921,0.1918,0.1915,0.1912,0,0,0.1721,0.1713,0.1727,0.1728,0.1768,0.1776,0.1801,0.1748,0.1807,0.1771,0.1849,0.2104,0.2327,0.2063,0.208,0.1995,0.211,0.1911,0.257,0.2556,0.2589,0.2731,0.2565,0,0,0,0,0]},{"header":{"parameterUnit":"m.s-1","parameterCategory":2,"la1":30.2991,"la2":30.254,"lo1":-89.0895,"lo2":-89.0444,"dy":0.0017,"dx":0.0017,"nx":28,"ny":28,"refTime":"2023-10-18T09:00:00:Z","depth":"2","parameterNumber":3,"parameterNumberName":"V-component_of_CURRENTS"},"data":[0,0,0,0,0,0,0,0,0,0,0,0,0,0,0,0,0,0,0,0,0,0,0,0,0,0,0,0,0,0,0,0,0,0,0,0,0,0,0,0,0,0,0,0,0,0,0,0,0,0,0,0,0,0,0,0,0,0,-0.0056,-0.0057,0,-0.0107,-0.0108,-0.0109,-0.0151,-0.0151,-0.0152,-0.0152,-0.0262,-0.0264,-0.0267,0,0,0,0,0,0,0,0,0,0,0,0,0,-0.0023,-0.0024,-0.0056,-0.0057,-0.0057,-0.0107,-0.0108,-0.0109,-0.0151,-0.0151,-0.0152,-0.0152,-0.0261,-0.0264,-0.0267,0,0,0,0,0,0,0,0,0,0,0,0,0,-0.0053,-0.0024,-0.0056,-0.0083,-0.0086,-0.0107,-0.0108,-0.0109,-0.0151,-0.0151,-0.0152,-0.0152,-0.026,-0.0264,-0.0268,-0.0282,0,0,-0.028,-0.0281,0,0,0,0,0,0,0,0,-0.0052,-0.0055,-0.0079,-0.0081,-0.0085,-0.0122,-0.0137,-0.0169,-0.0151,-0.0128,-0.0152,-0.0153,-0.0219,-0.0227,-0.0236,-0.0287,-0.0292,-0.028,-0.0282,-0.0284,-0.0285,0,0,0,0,0,0,0,-0.0049,-0.0053,-0.0078,-0.0079,-0.0083,-0.0103,-0.0107,-0.0143,-0.0172,-0.013,-0.0133,-0.0136,-0.0222,-0.0232,-0.0239,-0.0293,-0.028,-0.0283,-0.0286,-0.0287,-0.0368,-0.0368,0,0,0,0,0,0,-0.0039,-0.0051,-0.0076,-0.0079,-0.0068,-0.0103,-0.0108,-0.0111,-0.0171,-0.0179,-0.0136,-0.0138,-0.0225,-0.0235,-0.0243,-0.0257,-0.0284,-0.0288,-0.029,-0.0368,-0.0368,-0.0368,0,0,0,0,0,0,-0.0038,-0.004,-0.0074,-0.0065,-0.0071,-0.0102,-0.0105,-0.0111,-0.0123,-0.0174,-0.0185,-0.0141,-0.0226,-0.0238,-0.0268,-0.0262,-0.0289,-0.0293,-0.0369,-0.0368,-0.0368,-0.029,0,0,0,0,0,0,-0.0036,-0.004,-0.0038,-0.0064,-0.0071,-0.0082,-0.0105,-0.0112,-0.0124,-0.0128,-0.0182,-0.0193,-0.0227,-0.0262,-0.0272,-0.0268,-0.0296,-0.0369,-0.0369,-0.0368,-0.0293,-0.0287,-0.0282,0,0,0,0,0,-0.0035,-0.0026,-0.0038,-0.0041,-0.0067,-0.0081,-0.0086,-0.0112,-0.0124,-0.0125,-0.0158,-0.0191,-0.0267,-0.0264,-0.0276,-0.0274,-0.0369,-0.0369,-0.0368,-0.0295,-0.0288,-0.0282,0,0,0,0,0,0,-0.0013,-0.003,-0.0043,-0.0041,-0.0059,-0.0088,-0.0089,-0.0107,-0.0134,-0.0138,-0.0188,-0.02,-0.0226,-0.0261,-0.0257,-0.0297,-0.0324,-0.0326,-0.0265,-0.0259,-0.0253,-0.0227,-0.0299,0,0,0,0,0,-0.0006,-0.0003,-0.0027,-0.0026,-0.0031,-0.006,-0.0069,-0.0085,-0.0111,-0.0124,-0.0161,-0.0201,-0.0233,-0.0253,-0.0289,-0.0309,-0.0338,-0.0317,-0.0311,-0.0306,-0.0293,-0.0325,-0.0321,-0.0366,-0.0366,-0.0366,0,0,0.0003,-0.0006,-0.0005,-0.0021,-0.0036,-0.0035,-0.0067,-0.0074,-0.0074,-0.0132,-0.0145,-0.0185,-0.0235,-0.0256,-0.0271,-0.0283,-0.031,-0.0306,-0.0301,-0.0291,-0.0324,-0.0319,-0.0315,-0.0366,-0.0366,-0.0366,0,0,0.0024,0.0015,0.0023,0.0016,-0.0,-0.0015,-0.0014,-0.0041,-0.0054,-0.0071,-0.0112,-0.0142,-0.0194,-0.0224,-0.0247,-0.0235,-0.0282,-0.0252,-0.0202,-0.0233,-0.0229,-0.0226,-0.026,-0.0261,-0.0248,-0.0247,-0.0247,0,0.0036,0.004,0.0022,0.003,0.0033,-0.0001,0.0012,-0.0005,-0.0039,-0.0045,-0.0065,-0.0128,-0.0176,-0.0195,-0.0191,-0.0222,-0.0246,-0.022,-0.0224,-0.0221,-0.022,-0.0256,-0.0258,-0.0244,-0.0244,-0.0244,-0.0245,0,0.0058,0.0065,0.0072,0.0073,0.0075,0.008,0.0063,0.0057,0.0038,0.0016,-0.0007,-0.0062,-0.0097,-0.0121,-0.0153,-0.0163,-0.0187,-0.0213,-0.0235,-0.021,-0.0251,-0.0253,-0.0238,-0.0239,-0.0241,-0.0242,0,0,0.0068,0.0087,0.0086,0.0099,0.0101,0.0104,0.0116,0.0112,0.0118,0.0081,0.0089,0.0028,-0.0001,-0.0029,-0.0075,-0.0102,-0.0119,-0.0143,-0.0146,-0.0166,-0.0185,-0.0239,-0.0248,-0.0141,-0.0141,-0.0141,-0.022,0,0.0086,0.0117,0.0124,0.0153,0.0167,0.0164,0.0187,0.0181,0.0159,0.0156,0.0107,0.0091,0.0033,0.0024,-0.0012,-0.0088,-0.0122,-0.0095,-0.0215,-0.0219,-0.0261,-0.0251,-0.021,-0.0279,-0.0223,-0.0224,-0.0224,0,0.0086,0.0117,0.0153,0.0201,0.0211,0.0227,0.0254,0.0272,0.0262,0.0257,0.0232,0.0186,0.0149,0.0097,-0.0012,0.0011,-0.0078,-0.0142,-0.0147,-0.0223,-0.0278,-0.0296,-0.0287,-0.023,-0.0229,-0.0229,-0.0229,0,0.0078,0.0125,0.0159,0.0173,0.0227,0.0249,0.0283,0.0291,0.0314,0.0319,0.0325,0.0273,0.0253,0.015,0.0015,0.0002,-0.0106,-0.0148,-0.0282,-0.0287,-0.0289,-0.0295,-0.0229,-0.0229,-0.0229,-0.0228,-0.0228,0,0.0076,0.0098,0.0156,0.0176,0.0236,0.027,0.0319,0.0349,0.0384,0.0436,0.0375,0.0387,0.0266,0.0181,0.005,-0.0117,-0.0085,-0.0269,-0.0309,-0.0263,-0.0265,-0.0252,-0.0254,-0.0231,-0.0231,-0.023,-0.023,0,0.0042,0.0073,0.0126,0.0205,0.0226,0.0273,0.0357,0.0405,0.043,0.0497,0.0512,0.047,0.038,0.023,0.0072,-0.0075,-0.0226,-0.0298,-0.0237,-0.0269,-0.04,-0.0397,-0.0463,-0.0466,-0.0468,-0.047,-0.0471,0,0.0026,0.0043,0.0145,0.02,0.0234,0.0304,0.0372,0.0429,0.0501,0.0552,0.0607,0.0526,0.0508,0.0237,0.0004,-0.0229,-0.0257,-0.0386,-0.0418,-0.0391,-0.0423,-0.0416,-0.0411,-0.039,-0.039,-0.0391,-0.0391,0,0.001,0.0042,0.0105,0.0227,0.0302,0.0395,0.05,0.0569,0.0673,0.073,0.0815,0.079,0.0531,0.0319,-0.0029,-0.02,-0.0344,-0.041,-0.0382,-0.0343,-0.033,-0.0359,-0.0354,-0.0396,-0.0396,-0.0395,-0.0395,-0.0395,0.001,0.006,0.0158,0.0278,0.0371,0.0521,0.0636,0.0765,0.0903,0.105,0.0985,0.0974,0.0662,0.0244,-0.0063,-0.0388,-0.0395,-0.0513,-0.0507,-0.0501,-0.0485,-0.0477,-0.0568,-0.0569,-0.0569,-0.0569,-0.057,0,0.005,0.0116,0.0218,0.0387,0.0525,0.0551,0.0756,0.0903,0.1122,0.1193,0.1254,0.0971,0.0678,0.0327,-0.015,-0.0471,-0.0472,-0.0573,-0.0489,-0.0483,-0.0478,-0.0457,-0.0534,-0.0535,-0.0536,-0.0536,0,0,0.0081,0.0194,0.0263,0.0497,0.0614,0.0824,0.0964,0.1163,0.1285,0.1387,0.1368,0.1252,0.0806,0.0468,0.0041,-0.0227,-0.0279,-0.029,-0.0288,-0.0132,-0.0122,-0.042,-0.0379,0,0,0,0,0]}],[{"header":{"parameterUnit":"m.s-1","parameterCategory":2,"la1":30.2991,"la2":30.254,"lo1":-89.0895,"lo2":-89.0444,"dy":0.0017,"dx":0.0017,"nx":28,"ny":28,"refTime":"2023-10-18T09:00:00:Z","depth":"4","parameterNumber":2,"parameterNumberName":"U-component_of_CURRENTS"},"data":[0,0,0,0,0,0,0,0,0,0,0,0,0,0,0,0,0,0,0,0,0,0,0,0,0,0,0,0,0,0,0,0,0,0,0,0,0,0,0,0,0,0,0,0,0,0,0,0,0,0,0,0,0,0,0,0,0,0,0.1221,0.1222,0,0.1291,0.1292,0.1293,0.1351,0.1352,0.1353,0.1354,0.1431,0.1433,0.1434,0,0,0,0,0,0,0,0,0,0,0,0,0,0.1109,0.1111,0.1221,0.1222,0.1223,0.1291,0.1292,0.1293,0.1351,0.1352,0.1353,0.1354,0.1431,0.1433,0.1434,0,0,0,0,0,0,0,0,0,0,0,0,0,0.1166,0.1112,0.1221,0.1261,0.1265,0.1291,0.1292,0.1293,0.1351,0.1352,0.1353,0.1354,0.143,0.1432,0.1435,0.1426,0,0,0.1441,0.1442,0,0,0,0,0,0,0,0,0.1163,0.117,0.1254,0.1258,0.1263,0.1314,0.1281,0.1338,0.1351,0.1318,0.1354,0.1355,0.1393,0.1398,0.1408,0.143,0.1433,0.1441,0.1442,0.1443,0.1444,0,0,0,0,0,0,0,0.1159,0.1167,0.1248,0.1255,0.126,0.1266,0.1275,0.1292,0.1348,0.1321,0.1325,0.1334,0.1395,0.1405,0.141,0.1434,0.1441,0.1443,0.1444,0.1445,0.1556,0.1557,0,0,0,0,0,0,0.1152,0.1163,0.1246,0.125,0.1215,0.1267,0.1277,0.1296,0.1348,0.1357,0.1333,0.1336,0.1401,0.1407,0.1413,0.1499,0.1443,0.1445,0.1447,0.1554,0.1556,0.1558,0,0,0,0,0,0,0.115,0.1159,0.1243,0.1208,0.1219,0.1268,0.1288,0.1297,0.1341,0.1357,0.1366,0.1372,0.1402,0.141,0.1461,0.1499,0.1446,0.1448,0.1552,0.1555,0.1557,0.1611,0,0,0,0,0,0,0.1146,0.1158,0.1183,0.1208,0.1221,0.1281,0.1288,0.1298,0.1343,0.1349,0.1393,0.1399,0.1404,0.1458,0.1463,0.1501,0.145,0.155,0.1553,0.1556,0.1607,0.1615,0.1622,0,0,0,0,0,0.1142,0.1165,0.1184,0.1194,0.125,0.1282,0.129,0.1326,0.1344,0.1369,0.1402,0.14,0.1482,0.1461,0.1467,0.1506,0.1548,0.1552,0.1556,0.1604,0.1614,0.1622,0,0,0,0,0,0,0.1128,0.1174,0.1195,0.1232,0.1267,0.1293,0.1323,0.1344,0.1389,0.1404,0.1418,0.1427,0.1487,0.1488,0.1465,0.1547,0.1516,0.1521,0.155,0.1559,0.1567,0.1578,0.1452,0,0,0,0,0,0.1136,0.1171,0.1208,0.1242,0.1262,0.1299,0.1322,0.1347,0.1382,0.1405,0.1435,0.1468,0.15,0.1524,0.1548,0.1591,0.1597,0.1621,0.1629,0.1635,0.1649,0.1689,0.1701,0.157,0.157,0.157,0,0,0.1137,0.117,0.1189,0.1242,0.1274,0.1311,0.1317,0.1363,0.1401,0.1404,0.1475,0.1497,0.1517,0.1569,0.1596,0.158,0.1675,0.164,0.1645,0.1656,0.1694,0.1707,0.1718,0.1573,0.1572,0.1572,0,0,0.1149,0.1192,0.1223,0.1258,0.1314,0.1337,0.1358,0.1405,0.1441,0.1499,0.1514,0.1562,0.1611,0.1635,0.1651,0.1713,0.1711,0.1724,0.1775,0.1814,0.1825,0.1834,0.1853,0.1864,0.173,0.173,0.173,0,0.1151,0.1197,0.1236,0.1276,0.131,0.1354,0.1392,0.1431,0.1492,0.1526,0.1534,0.1626,0.1642,0.1705,0.1732,0.1731,0.1747,0.1737,0.1823,0.1833,0.1842,0.1859,0.187,0.1733,0.1732,0.1732,0.1732,0,0.1179,0.1227,0.125,0.1318,0.136,0.14,0.1456,0.1509,0.1556,0.1593,0.1677,0.1705,0.1763,0.1774,0.1776,0.1853,0.1842,0.1825,0.1798,0.1859,0.1872,0.1883,0.1737,0.1736,0.1735,0.1734,0,0,0.1148,0.1249,0.126,0.1295,0.1387,0.1413,0.1497,0.157,0.1626,0.1693,0.1764,0.1827,0.1854,0.1875,0.1886,0.1921,0.1995,0.1911,0.1912,0.1926,0.2079,0.1957,0.1957,0.1999,0.2001,0.2003,0.2059,0,0.1158,0.1223,0.1285,0.1353,0.1384,0.1466,0.1536,0.1613,0.1685,0.1764,0.1817,0.1892,0.1888,0.193,0.1967,0.1993,0.2029,0.1981,0.2022,0.2023,0.1905,0.1967,0.2011,0.2067,0.207,0.2072,0.2073,0,0.1154,0.1201,0.1266,0.1362,0.1388,0.1445,0.1562,0.1639,0.1763,0.1823,0.1914,0.1961,0.2048,0.2026,0.2112,0.2087,0.2098,0.2104,0.2105,0.1983,0.1922,0.1997,0.2093,0.2091,0.209,0.2088,0.2087,0,0.1076,0.1179,0.1229,0.1263,0.1385,0.1443,0.1526,0.1656,0.1727,0.188,0.1935,0.2044,0.2103,0.2151,0.2184,0.2165,0.2254,0.222,0.2117,0.2107,0.2174,0.2163,0.2277,0.2277,0.2277,0.2277,0.2277,0,0.1039,0.1078,0.1198,0.1223,0.1289,0.1407,0.1509,0.1606,0.1751,0.1836,0.1966,0.203,0.2142,0.2202,0.2218,0.2204,0.2287,0.2141,0.2122,0.2194,0.2185,0.2181,0.2169,0.2279,0.2278,0.2278,0.2278,0,0.0943,0.1025,0.1078,0.1209,0.1252,0.1306,0.148,0.1548,0.1709,0.1823,0.188,0.2039,0.2136,0.2208,0.2289,0.2228,0.2239,0.2208,0.2289,0.2271,0.2056,0.2047,0.21,0.2096,0.2093,0.2091,0.2088,0,0.0893,0.0914,0.104,0.107,0.1135,0.1244,0.1315,0.1501,0.1581,0.181,0.1838,0.1997,0.2088,0.2096,0.2192,0.2222,0.2193,0.2176,0.2111,0.2066,0.2043,0.2038,0.2033,0.2083,0.2083,0.2082,0.2081,0,0.0791,0.0851,0.0898,0.0969,0.1037,0.1117,0.1241,0.1283,0.1512,0.1651,0.1768,0.185,0.1947,0.2027,0.2066,0.208,0.2179,0.2143,0.2148,0.2088,0.2046,0.2025,0.2024,0.207,0.2072,0.2073,0.2074,0,0.0708,0.0718,0.0795,0.0852,0.0925,0.0977,0.1065,0.118,0.1289,0.1548,0.1586,0.1768,0.1927,0.1954,0.1994,0.2003,0.197,0.1893,0.1911,0.1924,0.1843,0.1764,0.1698,0,0,0,0,0,0.0619,0.0634,0.0672,0.0737,0.081,0.0864,0.1005,0.111,0.132,0.1352,0.1475,0.1574,0.1682,0.1777,0.1752,0.1907,0.1962,0.1869,0.1877,0.2011,0.2024,0.1946,0,0,0,0,0,0,0.056,0.0589,0.0629,0.0633,0.0661,0.0739,0.0826,0.0968,0.1013,0.1228,0.1292,0.1458,0.1576,0.1666,0.1711,0.1739,0.1708,0.1986,0.1982,0.2004,0.2015,0.2025,0.195,0,0,0,0,0]},{"header":{"parameterUnit":"m.s-1","parameterCategory":2,"la1":30.2991,"la2":30.254,"lo1":-89.0895,"lo2":-89.0444,"dy":0.0017,"dx":0.0017,"nx":28,"ny":28,"refTime":"2023-10-18T09:00:00:Z","depth":"4","parameterNumber":3,"parameterNumberName":"V-component_of_CURRENTS"},"data":[0,0,0,0,0,0,0,0,0,0,0,0,0,0,0,0,0,0,0,0,0,0,0,0,0,0,0,0,0,0,0,0,0,0,0,0,0,0,0,0,0,0,0,0,0,0,0,0,0,0,0,0,0,0,0,0,0,0,0.0061,0.0061,0,0.0018,0.0017,0.0017,-0.0007,-0.0007,-0.0007,-0.0007,-0.0083,-0.0085,-0.0087,0,0,0,0,0,0,0,0,0,0,0,0,0,0.0109,0.0108,0.0061,0.0061,0.0061,0.0018,0.0017,0.0016,-0.0007,-0.0007,-0.0007,-0.0007,-0.0082,-0.0085,-0.0087,0,0,0,0,0,0,0,0,0,0,0,0,0,0.0078,0.0108,0.0062,0.0044,0.0042,0.0018,0.0017,0.0016,-0.0007,-0.0007,-0.0007,-0.0007,-0.0082,-0.0085,-0.0088,-0.0107,0,0,-0.0097,-0.0098,0,0,0,0,0,0,0,0,0.008,0.0076,0.0047,0.0046,0.0043,0.0012,0.0006,-0.0026,-0.0007,0.0011,-0.0007,-0.0007,-0.0054,-0.0059,-0.0068,-0.0111,-0.0114,-0.0097,-0.0099,-0.0101,-0.0101,0,0,0,0,0,0,0,0.0082,0.0078,0.0043,0.0047,0.0044,0.0033,0.0029,-0.0,-0.0022,0.001,0.0008,0.0004,-0.0055,-0.0065,-0.007,-0.0115,-0.0097,-0.01,-0.0102,-0.0103,-0.019,-0.0191,0,0,0,0,0,0,0.009,0.008,0.0045,0.0042,0.0063,0.0033,0.0028,0.0021,-0.0021,-0.0027,0.0004,0.0003,-0.006,-0.0067,-0.0073,-0.0099,-0.01,-0.0103,-0.0105,-0.019,-0.019,-0.0191,0,0,0,0,0,0,0.0091,0.0087,0.0047,0.0061,0.0055,0.0032,0.0024,0.002,0.001,-0.0025,-0.0032,-0.0002,-0.006,-0.0069,-0.0098,-0.0102,-0.0105,-0.0108,-0.0189,-0.019,-0.019,-0.0152,0,0,0,0,0,0,0.0092,0.0088,0.0085,0.0061,0.0055,0.0034,0.0024,0.0019,0.0008,0.0006,-0.0032,-0.0039,-0.0061,-0.0093,-0.0101,-0.0107,-0.011,-0.0189,-0.0189,-0.019,-0.0152,-0.0151,-0.015,0,0,0,0,0,0.0094,0.0092,0.0085,0.0081,0.0052,0.0034,0.0029,0.0013,0.0008,0.0003,-0.0022,-0.0038,-0.0105,-0.0096,-0.0105,-0.0112,-0.0188,-0.0189,-0.019,-0.0153,-0.0151,-0.015,0,0,0,0,0,0,0.0107,0.0089,0.0081,0.0072,0.0056,0.003,0.0026,0.0013,-0.001,-0.0011,-0.0043,-0.0052,-0.008,-0.0104,-0.0093,-0.0141,-0.015,-0.0153,-0.0118,-0.0117,-0.0116,-0.0112,-0.0113,0,0,0,0,0,0.011,0.0106,0.0084,0.0077,0.0071,0.0048,0.0039,0.0027,0.0005,-0.0005,-0.0032,-0.0063,-0.0092,-0.0109,-0.0138,-0.0164,-0.0197,-0.0175,-0.0174,-0.0173,-0.0177,-0.0232,-0.0236,-0.0194,-0.0194,-0.0194,0,0,0.0113,0.0103,0.01,0.008,0.0067,0.0058,0.0043,0.0031,0.0022,-0.0011,-0.0031,-0.0059,-0.0099,-0.0125,-0.014,-0.0144,-0.0201,-0.0174,-0.0172,-0.0178,-0.0233,-0.0237,-0.0241,-0.0195,-0.0195,-0.0195,0,0,0.0115,0.0108,0.0104,0.0096,0.0079,0.0066,0.0064,0.004,0.0028,0.0006,-0.0021,-0.0052,-0.0093,-0.0124,-0.0144,-0.0156,-0.0191,-0.0164,-0.0155,-0.0208,-0.0211,-0.0215,-0.0253,-0.0261,-0.0164,-0.0163,-0.0163,0,0.0119,0.0109,0.01,0.0095,0.0091,0.0072,0.0067,0.0053,0.0022,0.0009,0.0005,-0.0065,-0.0095,-0.0136,-0.0137,-0.0153,-0.0184,-0.0154,-0.0205,-0.021,-0.0214,-0.0253,-0.0262,-0.0162,-0.0162,-0.0162,-0.0162,0,0.0114,0.0112,0.011,0.0101,0.0096,0.009,0.0074,0.0065,0.0051,0.003,-0.0009,-0.0051,-0.0093,-0.0107,-0.0125,-0.0171,-0.0182,-0.0195,-0.0205,-0.0216,-0.0256,-0.0266,-0.0159,-0.016,-0.016,-0.0161,0,0,0.0103,0.0107,0.0106,0.0112,0.01,0.0099,0.0089,0.0069,0.0064,0.0028,0.0007,-0.0046,-0.007,-0.0096,-0.0127,-0.0171,-0.0223,-0.0192,-0.0195,-0.0223,-0.0333,-0.0299,-0.0307,-0.0245,-0.0247,-0.0248,-0.0344,0,0.0098,0.0107,0.0101,0.011,0.0116,0.0106,0.0105,0.0089,0.0066,0.0044,-0.0007,-0.0037,-0.0065,-0.0081,-0.0132,-0.02,-0.0249,-0.0195,-0.0325,-0.0329,-0.0292,-0.0317,-0.0253,-0.0352,-0.0354,-0.0356,-0.0357,0,0.0084,0.0099,0.0112,0.0131,0.0131,0.0133,0.0132,0.0125,0.0089,0.0075,0.0029,-0.001,-0.0077,-0.0095,-0.0227,-0.0191,-0.026,-0.0315,-0.032,-0.031,-0.0314,-0.0344,-0.0375,-0.0374,-0.0373,-0.0371,-0.037,0,0.009,0.0101,0.0119,0.0125,0.0142,0.0146,0.0149,0.013,0.0141,0.009,0.0094,-0.0004,-0.0033,-0.0145,-0.025,-0.0245,-0.0392,-0.0402,-0.0441,-0.0439,-0.0457,-0.0452,-0.0504,-0.0504,-0.0504,-0.0504,-0.0503,0,0.0089,0.0102,0.0128,0.0143,0.018,0.0169,0.0196,0.0186,0.0174,0.0199,0.0114,0.0114,-0.0046,-0.014,-0.0252,-0.0371,-0.04,-0.0447,-0.0467,-0.0437,-0.0429,-0.0463,-0.0457,-0.0507,-0.0507,-0.0506,-0.0505,0,0.01,0.0107,0.0143,0.0173,0.0189,0.0219,0.0263,0.0284,0.0258,0.0286,0.0278,0.0192,0.0071,-0.0091,-0.0273,-0.0351,-0.0484,-0.0521,-0.047,-0.0484,-0.0497,-0.0488,-0.058,-0.058,-0.058,-0.058,-0.058,0,0.0116,0.0134,0.019,0.0234,0.0253,0.0299,0.0344,0.0339,0.0371,0.0352,0.0377,0.0261,0.019,-0.004,-0.0224,-0.0458,-0.0481,-0.0551,-0.0535,-0.0498,-0.0508,-0.0499,-0.0491,-0.0579,-0.0579,-0.0579,-0.0579,0,0.0167,0.018,0.022,0.0306,0.0363,0.0434,0.0487,0.0517,0.0517,0.0496,0.0473,0.0344,0.0206,-0.0002,-0.0192,-0.0354,-0.051,-0.0549,-0.0551,-0.0537,-0.0497,-0.0506,-0.0498,-0.0578,-0.0578,-0.0578,-0.0578,0,0.022,0.0262,0.0315,0.0387,0.0464,0.0542,0.0564,0.0601,0.062,0.0584,0.058,0.0411,0.0299,0.0053,-0.0114,-0.0284,-0.0322,-0.0362,-0.0374,-0.0377,-0.0289,-0.0208,-0.0222,0,0,0,0,0,0.0279,0.0324,0.0398,0.0474,0.0545,0.0587,0.0655,0.0665,0.0661,0.0665,0.062,0.0494,0.0244,0.0129,-0.0034,-0.012,-0.0362,-0.0315,-0.0416,-0.0574,-0.0575,-0.0503,0,0,0,0,0,0,0.0323,0.039,0.0411,0.0527,0.0583,0.0671,0.0713,0.0713,0.071,0.0677,0.0544,0.0467,0.0214,0.0332,-0.0035,-0.0089,-0.0169,-0.0444,-0.0447,-0.0573,-0.0574,-0.0575,-0.0502,0,0,0,0,0]}]]